Location: Burera
(21.3780°N, 81.9534°E)
Time: 12:31:33
(UTC+00:00)

H-2A R/B - Pass Details

Date: 13 August 2020
Orbit: 578 x 654 km, 98.5° (Epoch: 21 September)

Event Time Altitude Azimuth Distance (km) Brightness Sun altitude
Exits shadow 23:08:46 24° 249° (WSW) 1,218 2.9 -14.4°
Maximum altitude 23:09:14 25° 261° (W) 1,199 2.9 -14.3°
Drops below altitude 10° 23:12:36 10° 316° (NW) 1,891 4.3 -13.6°
Sets 23:15:04 0° 330° (NNW) 2,789 5.3 -13.0°
